This is the latest recevied weather packets stored in our database for station/object SR4DIG-13. If no packets are shown the sender has not sent any weather packets the latest 10 day(s).
| Time | Temp. | Humidity | Pressure | Rain* | Wind** | Luminosity | Snow |
|---|---|---|---|---|---|---|---|
| 1777883308 | 25° C | 29% | 1012 hPa | 0 mm | - | - | - |
| 1777882955 | 25° C | 29% | 1012.1 hPa | 0 mm | - | - | - |
| 1777882654 | 25° C | 29% | 1012 hPa | 0 mm | - | - | - |
| 1777882353 | 24.44° C | 30% | 1012.2 hPa | 0 mm | - | - | - |
| 1777882052 | 23.89° C | 30% | 1012.3 hPa | 0 mm | - | - | - |
| 1777881751 | 23.89° C | 30% | 1012.2 hPa | 0 mm | - | - | - |
| 1777881450 | 23.89° C | 30% | 1012.3 hPa | 0 mm | - | - | - |
| 1777881149 | 23.89° C | 30% | 1012.1 hPa | 0 mm | - | - | - |
| 1777880308 | 23.33° C | 30% | 1012.1 hPa | 0 mm | - | - | - |
| 1777880007 | 23.33° C | 31% | 1012.2 hPa | 0 mm | - | - | - |
| 1777879706 | 23.33° C | 32% | 1012.1 hPa | 0 mm | - | - | - |
| 1777879405 | 22.78° C | 33% | 1012.4 hPa | 0 mm | - | - | - |
| 1777879104 | 22.78° C | 33% | 1012.5 hPa | 0 mm | - | - | - |
| 1777878804 | 22.78° C | 33% | 1012.4 hPa | 0 mm | - | - | - |
| 1777878503 | 22.78° C | 33% | 1012.5 hPa | 0 mm | - | - | - |
| 1777877896 | 22.78° C | 33% | 1012.5 hPa | 0 mm | - | - | - |
| 1777877594 | 22.78° C | 33% | 1012.6 hPa | 0 mm | - | - | - |
| 1777877294 | 22.78° C | 34% | 1012.5 hPa | 0 mm | - | - | - |
| 1777876608 | 21.67° C | 36% | 1012.6 hPa | 0 mm | - | - | - |
| 1777876307 | 21.11° C | 36% | 1012.6 hPa | 0 mm | - | - | - |
| 1777876006 | 21.11° C | 36% | 1012.7 hPa | 0 mm | - | - | - |
| 1777875705 | 20.56° C | 38% | 1012.5 hPa | 0 mm | - | - | - |
| 1777875405 | 20.56° C | 38% | 1012.5 hPa | 0 mm | - | - | - |
| 1777875104 | 20° C | 40% | 1012.6 hPa | 0 mm | - | - | - |
| 1777874803 | 19.44° C | 39% | 1012.7 hPa | 0 mm | - | - | - |
* Rain since midnight (hover to see other rain measurements)
** Current wind speed in m/s (hover to see current wind gust speed)